GW5339 Weather Reports


time (UTC)temp
C
wind
direction
speed
KPH
gust
KPH
rain 1hr
cm
rain 24hr
cm
rain mn
cm
humidity
%
barometer
mb
20260508144541 17 206 1.6 6.4 0.00 1.14 0.00 44 1018.3
20260508143025 17 39 0.0 3.2 0.00 1.14 0.00 47 1018.3
20260508141530 17 243 0.0 3.2 0.00 1.14 0.00 55 1018.2
20260508140028 15 328 0.0 0.0 0.00 1.14 0.00 53 1018.2
20260508134527 15 311 0.0 0.0 0.00 1.14 0.00 63 1018.1
20260508133031 13 217 0.0 0.0 0.00 1.14 0.00 75 1018.1
20260508131528 13 243 0.0 0.0 0.00 1.14 0.00 79 1018.1
20260508130029 11 160 0.0 0.0 0.00 1.14 0.00 82 1018.1
20260508124533 10 159 0.0 0.0 0.00 1.14 0.00 90 1018.1
20260508123019 7 159 0.0 0.0 0.00 1.14 0.00 92 1018.0
20260508121529 7 159 0.0 0.0 0.00 1.14 0.00 93 1017.9
20260508120008 6 34 0.0 0.0 0.00 1.14 0.00 93 1017.7
20260508114514 5 34 0.0 0.0 0.00 1.14 0.00 93 1017.3
20260508113016 5 34 0.0 0.0 0.00 1.14 0.00 93 1017.1
20260508111522 4 34 0.0 0.0 0.00 1.14 0.00 92 1016.9
20260508110043 4 34 0.0 0.0 0.00 1.14 0.00 93 1016.8
20260508104506 4 34 0.0 0.0 0.00 1.14 0.00 92 1016.6
20260508103014 4 34 0.0 0.0 0.00 1.14 0.00 92 1016.3
20260508101520 4 34 0.0 0.0 0.00 1.14 0.00 92 1016.1
20260508100024 5 34 0.0 0.0 0.00 1.14 0.00 92 1015.9
20260508094526 5 34 0.0 0.0 0.00 1.14 0.00 92 1015.7
20260508093013 5 34 0.0 0.0 0.00 1.14 0.00 92 1015.6
20260508091515 5 20 0.0 0.0 0.00 1.14 0.00 92 1015.5
20260508090026 5 257 0.0 0.0 0.00 1.14 0.00 92 1015.4
20260508084526 5 257 0.0 0.0 0.00 1.14 0.00 91 1015.4
20260508083027 5 257 0.0 0.0 0.00 1.14 0.00 91 1015.4
20260508081510 6 257 0.0 0.0 0.00 1.14 0.00 91 1015.2
20260508080016 6 257 0.0 0.0 0.00 1.14 0.00 91 1015.2
20260508074522 6 257 0.0 0.0 0.00 1.14 0.00 91 1015.1
20260508073029 6 257 0.0 0.0 0.00 1.14 0.00 91 1015.0
20260508071525 6 257 0.0 0.0 0.00 1.14 0.00 91 1014.9
20260508070014 6 257 0.0 0.0 0.00 1.14 0.00 91 1014.8
20260508064518 6 257 0.0 0.0 0.00 1.14 0.00 91 1014.7
20260508063020 6 253 0.0 0.0 0.00 1.14 0.00 91 1014.8
20260508061524 6 253 0.0 0.0 0.00 1.14 0.00 90 1014.7
20260508060032 6 253 0.0 0.0 0.00 1.14 0.00 90 1014.8
20260508054511 7 253 0.0 0.0 0.00 1.14 0.00 90 1014.7
20260508053031 7 253 0.0 0.0 0.00 1.14 0.00 90 1014.5
20260508051524 7 253 0.0 0.0 0.00 1.14 0.00 90 1014.5
20260508050026 7 253 0.0 0.0 0.00 1.14 0.00 90 1014.2
20260508044529 7 253 0.0 0.0 0.00 1.14 0.00 89 1014.2
20260508043013 7 253 0.0 0.0 0.00 1.14 0.00 89 1014.2
20260508041532 8 253 0.0 0.0 0.00 1.14 0.00 88 1014.1
20260508040027 8 338 0.0 0.0 0.00 1.14 0.00 88 1014.0
20260508034532 8 296 0.0 0.0 0.00 1.14 1.14 87 1014.1
20260508033031 8 288 0.0 0.0 0.00 1.14 1.14 87 1014.0
20260508031515 9 16 0.0 0.0 0.00 1.14 1.14 86 1013.9
20260508030025 10 302 0.0 0.0 0.00 1.14 1.14 85 1014.0
20260508024527 10 42 0.0 0.0 0.00 1.14 1.14 83 1013.7
20260508023030 10 348 0.0 0.0 0.00 1.14 1.14 83 1013.4
20260508021528 11 348 0.0 1.6 0.00 1.14 1.14 80 1013.4
20260508020025 11 7 0.0 3.2 0.00 1.14 1.14 81 1013.0
20260508014522 11 240 0.0 1.6 0.00 1.14 1.14 74 1012.8
20260508013027 12 240 0.0 0.0 0.00 1.17 1.14 74 1012.4
20260508011527 12 240 0.0 1.6 0.00 1.17 1.14 73 1012.1
20260508010030 13 240 0.0 0.0 0.00 1.19 1.14 73 1011.9
20260508004533 13 241 0.0 1.6 0.00 1.24 1.14 69 1011.8
20260508003023 13 240 0.0 1.6 0.00 1.27 1.14 69 1011.7
20260508001526 13 168 0.0 3.2 0.00 1.30 1.14 69 1011.5
20260508000032 14 55 0.0 1.6 0.00 1.32 1.14 70 1011.5
20260507234528 15 25 0.0 3.2 0.00 1.32 1.14 71 1011.4
20260507233050 15 19 1.6 4.8 0.00 1.37 1.14 67 1011.3
20260507231530 16 35 0.0 4.8 0.00 1.37 1.14 66 1011.1
20260507230028 17 32 1.6 9.7 0.00 1.40 1.14 66 1010.7
20260507224531 17 17 1.6 6.4 0.00 1.40 1.14 68 1010.3
20260507223013 17 50 0.0 4.8 0.00 1.40 1.14 71 1009.9
20260507221524 17 77 0.0 3.2 0.00 1.40 1.14 77 1009.5
20260507220025 17 134 0.0 6.4 0.00 1.40 1.14 84 1009.3
20260507214527 17 245 0.0 3.2 0.00 1.40 1.14 83 1009.3
20260507213034 17 44 0.0 6.4 0.00 1.40 1.14 83 1009.2
20260507211516 17 47 0.0 6.4 1.12 1.40 1.14 84 1009.1
20260507210021 18 60 3.2 9.7 1.14 1.40 1.14 82 1009.0
20260507204524 18 19 0.0 6.4 1.14 1.40 1.14 83 1008.8
20260507203026 18 45 3.2 9.7 1.14 1.40 1.14 81 1008.3
20260507201529 19 266 3.2 9.7 0.03 0.28 0.03 80 1008.2
20260507200016 19 49 1.6 9.7 0.00 0.25 0.00 81 1008.3
20260507194531 20 214 1.6 14.5 0.00 0.25 0.00 80 1007.9
20260507193029 21 21 3.2 11.3 0.00 0.25 0.00 78 1008.2
20260507191534 21 60 1.6 6.4 0.00 0.25 0.00 80 1008.2
20260507190030 21 13 0.0 3.2 0.00 0.25 0.00 87 1008.3
20260507184518 20 276 0.0 0.0 0.00 0.25 0.00 86 1007.8
20260507183036 21 293 0.0 0.0 0.00 0.25 0.00 85 1008.3
20260507181525 21 283 0.0 3.2 0.00 0.25 0.00 80 1008.1
20260507180034 22 271 1.6 8.0 0.00 0.25 0.00 76 1008.0
20260507174528 22 264 0.0 1.6 0.00 0.25 0.00 73 1008.0
20260507173029 22 265 1.6 11.3 0.00 0.25 0.00 73 1008.1
20260507171539 22 273 0.0 6.4 0.00 0.25 0.00 77 1008.4
20260507170028 22 267 1.6 6.4 0.00 0.25 0.00 78 1008.6
20260507164534 21 265 1.6 6.4 0.00 0.28 0.00 79 1008.9
20260507163029 21 163 1.6 4.8 0.00 0.30 0.00 85 1009.0
20260507161527 21 17 0.0 1.6 0.00 0.30 0.00 82 1009.3
20260507160030 21 232 1.6 6.4 0.00 0.33 0.00 83 1009.1
20260507154526 20 225 1.6 4.8 0.00 0.33 0.00 85 1008.9
20260507153029 19 166 0.0 3.2 0.00 0.33 0.00 87 1009.0
20260507151532 19 240 1.6 4.8 0.00 0.38 0.00 87 1009.2
20260507150024 18 248 1.6 3.2 0.00 0.38 0.00 90 1009.3